Datum;Richtung;Anzahl Messungen;Anzahl Fahrzeuge;Durchschnittsgeschwindigkeit;Hoechstgeschwindigkeit
27.09.2022 10:00;1;50;50;23.30;34.00
27.09.2022 10:30;1;54;54;25. Apr;37.00
27.09.2022 11:00;1;48;48;24.23;43.00
27.09.2022 11:30;1;60;60;23.58;38.00
27.09.2022 12:00;1;58;58;23.64;33.00
27.09.2022 12:30;1;51;51;24.82;35.00
27.09.2022 13:00;1;47;47;24.51;47.00
27.09.2022 13:30;1;52;52;25. Apr;33.00
27.09.2022 14:00;1;54;54;24.43;31.00
27.09.2022 14:30;1;53;53;24.58;34.00
27.09.2022 15:00;1;60;60;24.32;44.00
27.09.2022 15:30;1;64;64;23. Sep;37.00
27.09.2022 16:00;1;70;70;23.53;37.00
27.09.2022 16:30;1;71;71;24.44;36.00
27.09.2022 17:00;1;58;58;24.91;37.00
27.09.2022 17:30;1;63;63;25.14;44.00
27.09.2022 18:00;1;58;58;25. Jul;39.00
27.09.2022 18:30;1;48;48;24.62;57.00
27.09.2022 19:00;1;59;59;24.42;33.00
27.09.2022 19:30;1;35;35;25.97;40.00
27.09.2022 20:00;1;34;34;23.79;32.00
27.09.2022 20:30;1;33;33;26.00;41.00
27.09.2022 21:00;1;21;21;23.90;30.00
27.09.2022 21:30;1;18;18;24.00;42.00
27.09.2022 22:00;1;17;17;25.18;34.00
27.09.2022 22:30;1;9;9;20.78;28.00
27.09.2022 23:00;1;8;8;22.75;30.00
27.09.2022 23:30;1;4;4;29.75;51.00
28.09.2022 00:00;1;3;3;26.33;30.00
28.09.2022 00:30;1;4;4;24.50;34.00
28.09.2022 01:00;1;2;2;27.50;28.00
28.09.2022 01:30;1;1;1;23.00;23.00
28.09.2022 02:00;1;2;2;28.00;31.00
28.09.2022 02:30;1;4;4;27.75;33.00
28.09.2022 03:00;1;1;1;22.00;22.00
28.09.2022 03:30;1;2;2;21.50;25.00
28.09.2022 04:00;1;3;3;27.67;32.00
28.09.2022 04:30;1;5;5;32.80;57.00
28.09.2022 05:00;1;15;15;27.73;43.00
28.09.2022 05:30;1;25;25;25.64;41.00
28.09.2022 06:00;1;22;22;24.41;33.00
28.09.2022 06:30;1;44;44;25. Mai;34.00
28.09.2022 07:00;1;49;49;23.61;43.00
28.09.2022 07:30;1;69;69;22.32;32.00
28.09.2022 08:00;1;67;67;24.30;42.00
28.09.2022 08:30;1;54;54;24.30;38.00
28.09.2022 09:00;1;44;44;24.91;33.00
28.09.2022 09:30;1;51;51;24. Aug;33.00
28.09.2022 10:00;1;57;57;24.40;35.00
28.09.2022 10:30;1;53;53;23.34;32.00
28.09.2022 11:00;1;62;62;24.52;39.00
28.09.2022 11:30;1;49;49;24.73;39.00
28.09.2022 12:00;1;57;57;23.81;42.00
28.09.2022 12:30;1;57;57;24.39;36.00
28.09.2022 13:00;1;67;67;23.48;34.00
28.09.2022 13:30;1;72;72;24.97;41.00
28.09.2022 14:00;1;61;61;24.18;45.00
28.09.2022 14:30;1;47;47;25.64;34.00
28.09.2022 15:00;1;58;58;25.41;41.00
28.09.2022 15:30;1;54;54;25. Feb;52.00
28.09.2022 16:00;1;64;64;25.38;39.00
28.09.2022 16:30;1;52;52;25.98;38.00
28.09.2022 17:00;1;45;45;25. Feb;42.00
28.09.2022 17:30;1;51;51;26.25;46.00
28.09.2022 18:00;1;57;57;24.65;35.00
28.09.2022 18:30;1;51;51;22.78;38.00
28.09.2022 19:00;1;52;52;25.85;42.00
28.09.2022 19:30;1;41;41;26.17;36.00
28.09.2022 20:00;1;30;30;22.53;31.00
28.09.2022 20:30;1;22;22;26.86;34.00
28.09.2022 21:00;1;21;21;24.52;35.00
28.09.2022 21:30;1;21;21;23.00;30.00
28.09.2022 22:00;1;10;10;22.90;31.00
28.09.2022 22:30;1;22;22;26.36;35.00
28.09.2022 23:00;1;10;10;22.90;30.00
28.09.2022 23:30;1;7;7;24.71;32.00
29.09.2022 00:00;1;6;6;27.17;35.00
29.09.2022 00:30;1;5;5;31.00;40.00
29.09.2022 01:00;1;4;4;30.00;45.00
29.09.2022 02:00;1;1;1;23.00;23.00
29.09.2022 02:30;1;2;2;28.00;33.00
29.09.2022 03:00;1;2;2;24.50;26.00
29.09.2022 03:30;1;3;3;22.67;26.00
29.09.2022 04:00;1;2;2;30.00;30.00
29.09.2022 04:30;1;5;5;22.60;26.00
29.09.2022 05:00;1;12;12;24.00;38.00
29.09.2022 05:30;1;15;15;23.73;33.00
29.09.2022 06:00;1;29;29;23.45;33.00
29.09.2022 06:30;1;49;49;23.39;38.00
29.09.2022 07:00;1;58;58;22.62;31.00
29.09.2022 07:30;1;66;66;23. Mrz;33.00
29.09.2022 08:00;1;52;52;22.98;35.00
29.09.2022 08:30;1;51;51;24.33;37.00
29.09.2022 09:00;1;50;50;23. Jun;38.00
29.09.2022 09:30;1;55;55;23.38;31.00
29.09.2022 10:00;1;53;53;24. Apr;38.00
29.09.2022 10:30;1;69;69;24. Sep;40.00
29.09.2022 11:00;1;56;56;24.62;41.00
29.09.2022 11:30;1;55;55;24. Feb;35.00
29.09.2022 12:00;1;56;56;24.30;37.00
29.09.2022 12:30;1;56;56;23.46;35.00
29.09.2022 13:00;1;64;64;23.88;40.00
29.09.2022 13:30;1;60;60;23.38;38.00
29.09.2022 14:00;1;67;67;25.19;41.00
29.09.2022 14:30;1;59;59;24. Jul;32.00
29.09.2022 15:00;1;63;63;23.56;38.00
29.09.2022 15:30;1;73;73;23.70;39.00
29.09.2022 16:00;1;65;65;22.75;39.00
29.09.2022 16:30;1;66;66;24.48;38.00
29.09.2022 17:00;1;59;59;24.25;38.00
29.09.2022 17:30;1;61;61;25.33;39.00
29.09.2022 18:00;1;63;63;25. Nov;37.00
29.09.2022 18:30;1;50;50;25.60;41.00
29.09.2022 19:00;1;53;53;26.21;49.00
29.09.2022 19:30;1;35;35;25.63;33.00
29.09.2022 20:00;1;32;32;24.47;36.00
29.09.2022 20:30;1;27;27;23.59;34.00
29.09.2022 21:00;1;28;28;24.14;34.00
29.09.2022 21:30;1;23;23;27.00;40.00
29.09.2022 22:00;1;15;15;24.87;37.00
29.09.2022 22:30;1;11;11;28.55;46.00
29.09.2022 23:00;1;11;11;22.64;33.00
29.09.2022 23:30;1;12;12;23.75;32.00
30.09.2022 00:00;1;1;1;24.00;24.00
30.09.2022 00:30;1;6;6;24.33;31.00
30.09.2022 01:00;1;2;2;21.00;24.00
30.09.2022 01:30;1;1;1;35.00;35.00
30.09.2022 02:00;1;2;2;25.50;26.00
30.09.2022 02:30;1;1;1;21.00;21.00
30.09.2022 03:30;1;3;3;23.00;26.00
30.09.2022 04:00;1;4;4;23.50;25.00
30.09.2022 04:30;1;6;6;21.67;24.00
30.09.2022 05:00;1;11;11;26.45;39.00
30.09.2022 05:30;1;22;22;22.36;31.00
30.09.2022 06:00;1;20;20;21.90;32.00
30.09.2022 06:30;1;44;44;23. Sep;33.00
30.09.2022 07:00;1;43;43;23. Sep;38.00
30.09.2022 07:30;1;59;59;22. Dez;33.00
30.09.2022 08:00;1;60;60;23.65;33.00
30.09.2022 08:30;1;59;59;23.63;34.00
30.09.2022 09:00;1;52;52;23.62;32.00
30.09.2022 09:30;1;55;55;23.56;34.00
30.09.2022 10:00;1;54;54;24.24;33.00
30.09.2022 10:30;1;62;62;25. Mai;36.00
30.09.2022 11:00;1;63;63;23.81;37.00
30.09.2022 11:30;1;76;76;24.38;35.00
30.09.2022 12:00;1;66;66;23.39;37.00
30.09.2022 12:30;1;69;69;23.90;34.00
30.09.2022 13:00;1;57;57;22.98;33.00
30.09.2022 13:30;1;70;70;23.90;34.00
30.09.2022 14:00;1;55;55;23.93;36.00
30.09.2022 14:30;1;61;61;23.46;34.00
30.09.2022 15:00;1;73;73;22.81;32.00
30.09.2022 15:30;1;68;68;22.85;34.00
30.09.2022 16:00;1;70;70;24.67;43.00
30.09.2022 16:30;1;63;63;24.17;37.00
30.09.2022 17:00;1;61;61;24. Jul;35.00
30.09.2022 17:30;1;55;55;24.91;45.00
30.09.2022 18:00;1;61;61;23.89;43.00
30.09.2022 18:30;1;56;56;25.55;37.00
30.09.2022 19:00;1;51;51;25.90;36.00
30.09.2022 19:30;1;46;46;26. Sep;37.00
30.09.2022 20:00;1;36;36;23.78;35.00
30.09.2022 20:30;1;25;25;26.24;37.00
30.09.2022 21:00;1;35;35;26.51;42.00
30.09.2022 21:30;1;26;26;27.62;39.00
30.09.2022 22:00;1;28;28;27. Nov;36.00
30.09.2022 22:30;1;17;17;25.00;36.00
30.09.2022 23:00;1;14;14;25.93;38.00
30.09.2022 23:30;1;7;7;25.00;45.00
01.10.2022 00:00;1;6;6;24.17;29.00
01.10.2022 00:30;1;8;8;20.75;29.00
01.10.2022 01:00;1;8;8;23.62;36.00
01.10.2022 01:30;1;5;5;21.40;26.00
01.10.2022 02:00;1;6;6;20.67;27.00
01.10.2022 02:30;1;3;3;22.33;27.00
01.10.2022 03:00;1;3;3;24.33;29.00
01.10.2022 03:30;1;2;2;26.50;27.00
01.10.2022 04:00;1;3;3;23.00;27.00
01.10.2022 04:30;1;4;4;31.75;54.00
01.10.2022 05:00;1;5;5;19.60;24.00
01.10.2022 05:30;1;10;10;21.90;26.00
01.10.2022 06:00;1;7;7;22.14;27.00
01.10.2022 06:30;1;14;14;20.50;29.00
01.10.2022 07:00;1;17;17;21.59;33.00
01.10.2022 07:30;1;31;31;22.94;32.00
01.10.2022 08:00;1;21;21;23.86;31.00
01.10.2022 08:30;1;36;36;24. Jun;35.00
01.10.2022 09:00;1;49;49;25. Apr;37.00
01.10.2022 09:30;1;56;56;24.38;38.00
01.10.2022 10:00;1;68;68;25.21;38.00
01.10.2022 10:30;1;72;72;24.51;39.00
01.10.2022 11:00;1;68;68;24.59;35.00
01.10.2022 11:30;1;57;57;24.61;33.00
01.10.2022 12:00;1;59;59;25.15;37.00
01.10.2022 12:30;1;76;76;25.43;49.00
01.10.2022 13:00;1;59;59;25.93;35.00
01.10.2022 13:30;1;66;66;26.21;36.00
01.10.2022 14:00;1;77;77;25.13;54.00
01.10.2022 14:30;1;71;71;25.76;40.00
01.10.2022 15:00;1;57;57;26.58;45.00
01.10.2022 15:30;1;67;67;25.60;35.00
01.10.2022 16:00;1;67;67;25.70;44.00
01.10.2022 16:30;1;52;52;24.17;35.00
01.10.2022 17:00;1;53;53;26. Jun;48.00
01.10.2022 17:30;1;52;52;25.31;33.00
01.10.2022 18:00;1;50;50;25.32;52.00
01.10.2022 18:30;1;53;53;25.34;41.00
01.10.2022 19:00;1;37;37;25.35;41.00
01.10.2022 19:30;1;32;32;25.34;38.00
01.10.2022 20:00;1;31;31;24.23;34.00
01.10.2022 20:30;1;25;25;26.28;44.00
01.10.2022 21:00;1;33;33;26.45;43.00
01.10.2022 21:30;1;18;18;27.50;34.00
01.10.2022 22:00;1;21;21;29. Okt;64.00
01.10.2022 22:30;1;21;21;28.38;50.00
01.10.2022 23:00;1;21;21;27.33;39.00
01.10.2022 23:30;1;10;10;29.80;47.00
02.10.2022 00:00;1;13;13;30.23;53.00
02.10.2022 00:30;1;8;8;25.88;35.00
02.10.2022 01:00;1;7;7;24.43;30.00
02.10.2022 01:30;1;3;3;35.67;41.00
02.10.2022 02:00;1;2;2;26.00;30.00
02.10.2022 02:30;1;7;7;30.71;44.00
02.10.2022 03:00;1;1;1;32.00;32.00
02.10.2022 03:30;1;2;2;27.00;30.00
02.10.2022 04:00;1;3;3;19.67;23.00
02.10.2022 05:00;1;8;8;26.38;36.00
02.10.2022 05:30;1;3;3;27.00;33.00
02.10.2022 06:00;1;4;4;37.00;53.00
02.10.2022 06:30;1;7;7;25.43;32.00
02.10.2022 07:00;1;7;7;26.14;30.00
02.10.2022 07:30;1;4;4;25.75;29.00
02.10.2022 08:00;1;12;12;27.25;36.00
02.10.2022 08:30;1;14;14;25.93;30.00
02.10.2022 09:00;1;21;21;26.67;35.00
02.10.2022 09:30;1;31;31;26.71;42.00
02.10.2022 10:00;1;34;34;24.82;36.00
02.10.2022 10:30;1;42;42;24.93;37.00
02.10.2022 11:00;1;33;33;26.94;36.00
02.10.2022 11:30;1;35;35;25.23;40.00
02.10.2022 12:00;1;45;45;26.78;43.00
02.10.2022 12:30;1;50;50;27.20;43.00
02.10.2022 13:00;1;25;25;26.80;35.00
02.10.2022 13:30;1;35;35;26.57;40.00
02.10.2022 14:00;1;41;41;25.24;37.00
02.10.2022 14:30;1;33;33;25.42;36.00
02.10.2022 15:00;1;39;39;25.62;40.00
02.10.2022 15:30;1;37;37;24. Nov;35.00
02.10.2022 16:00;1;35;35;24.00;34.00
02.10.2022 16:30;1;45;45;24.89;45.00
02.10.2022 17:00;1;34;34;27.26;56.00
02.10.2022 17:30;1;46;46;25.30;40.00
02.10.2022 18:00;1;34;34;25.53;35.00
02.10.2022 18:30;1;43;43;24.16;39.00
02.10.2022 19:00;1;41;41;24.39;31.00
02.10.2022 19:30;1;39;39;27.79;53.00
02.10.2022 20:00;1;32;32;26.22;39.00
02.10.2022 20:30;1;21;21;27.33;38.00
02.10.2022 21:00;1;27;27;25.63;37.00
02.10.2022 21:30;1;25;25;25.76;38.00
02.10.2022 22:00;1;17;17;26.41;35.00
02.10.2022 22:30;1;12;12;28.83;43.00
02.10.2022 23:00;1;16;16;27.88;47.00
02.10.2022 23:30;1;13;13;26.46;41.00
03.10.2022 00:00;1;13;13;29.62;49.00
03.10.2022 00:30;1;6;6;31.33;43.00
03.10.2022 01:00;1;4;4;31.75;42.00
03.10.2022 01:30;1;2;2;31.00;34.00
03.10.2022 02:30;1;4;4;27.25;31.00
03.10.2022 03:30;1;4;4;30.75;35.00
03.10.2022 04:00;1;2;2;24.00;26.00
03.10.2022 04:30;1;3;3;26.67;30.00
03.10.2022 05:00;1;2;2;19.50;20.00
03.10.2022 05:30;1;12;12;25.83;33.00
03.10.2022 06:00;1;5;5;27.60;34.00
03.10.2022 06:30;1;15;15;26.33;33.00
03.10.2022 07:00;1;13;13;25.00;30.00
03.10.2022 07:30;1;9;9;24.33;30.00
03.10.2022 08:00;1;16;16;25.00;34.00
03.10.2022 08:30;1;15;15;24.73;35.00
03.10.2022 09:00;1;20;20;27.25;35.00
03.10.2022 09:30;1;27;27;26.26;45.00
03.10.2022 10:00;1;37;37;25.24;34.00
03.10.2022 10:30;1;44;44;25.45;38.00
03.10.2022 11:00;1;36;36;24.53;31.00
03.10.2022 11:30;1;32;32;25.38;32.00
03.10.2022 12:00;1;38;38;24.13;36.00
03.10.2022 12:30;1;47;47;24.91;40.00
03.10.2022 13:00;1;39;39;24.92;37.00
03.10.2022 13:30;1;47;47;24.53;41.00
03.10.2022 14:00;1;50;50;25. Jun;42.00
03.10.2022 14:30;1;47;47;24.89;36.00
03.10.2022 15:00;1;41;41;25.15;41.00
03.10.2022 15:30;1;31;31;23. Jun;32.00
03.10.2022 16:00;1;33;33;26.00;34.00
03.10.2022 16:30;1;36;36;24.44;36.00
03.10.2022 17:00;1;36;36;25.44;33.00
03.10.2022 17:30;1;41;41;25.00;45.00
03.10.2022 18:00;1;44;44;24.70;41.00
03.10.2022 18:30;1;44;44;25.48;39.00
03.10.2022 19:00;1;32;32;27.38;42.00
03.10.2022 19:30;1;41;41;27. Feb;42.00
03.10.2022 20:00;1;25;25;27.96;45.00
03.10.2022 20:30;1;22;22;26.86;35.00
03.10.2022 21:00;1;16;16;27.19;40.00
03.10.2022 21:30;1;16;16;26.31;37.00
03.10.2022 22:00;1;16;16;27.38;34.00
03.10.2022 22:30;1;6;6;25.83;34.00
03.10.2022 23:00;1;12;12;28.00;37.00
03.10.2022 23:30;1;3;3;22.33;24.00
04.10.2022 00:00;1;6;6;29.50;34.00
04.10.2022 00:30;1;6;6;29.83;40.00
04.10.2022 01:00;1;6;6;26.33;36.00
04.10.2022 01:30;1;1;1;34.00;34.00
04.10.2022 02:00;1;1;1;35.00;35.00
04.10.2022 02:30;1;1;1;28.00;28.00
04.10.2022 03:00;1;1;1;21.00;21.00
04.10.2022 03:30;1;2;2;27.50;34.00
04.10.2022 04:00;1;1;1;28.00;28.00
04.10.2022 04:30;1;7;7;27.71;38.00
04.10.2022 05:00;1;5;5;22.20;33.00
04.10.2022 05:30;1;22;22;24.77;35.00
04.10.2022 06:00;1;26;26;23.88;34.00
04.10.2022 06:30;1;58;58;23.22;35.00
04.10.2022 07:00;1;56;56;23. Mai;32.00
04.10.2022 07:30;1;70;70;22.50;33.00
04.10.2022 08:00;1;35;35;23. Mrz;35.00
04.10.2022 08:30;1;66;66;23. Mrz;33.00
04.10.2022 09:00;1;54;54;22.76;30.00
04.10.2022 09:30;1;42;42;23.17;34.00
04.10.2022 10:00;1;40;40;23.32;44.00
04.10.2022 10:30;1;67;67;23. Sep;43.00
04.10.2022 11:00;1;63;63;23.35;38.00
04.10.2022 11:30;1;51;51;24.16;43.00
04.10.2022 12:00;1;68;68;23.63;35.00
04.10.2022 12:30;1;46;46;23.39;34.00
04.10.2022 13:00;1;60;60;23.60;41.00
04.10.2022 13:30;1;54;54;24.56;41.00
04.10.2022 14:00;1;63;63;23.92;35.00
04.10.2022 14:30;1;66;66;23.17;33.00
04.10.2022 15:00;1;65;65;23.71;38.00
04.10.2022 15:30;1;71;71;23.35;36.00
04.10.2022 16:00;1;67;67;22. Jan;31.00
04.10.2022 16:30;1;64;64;23.83;42.00
04.10.2022 17:00;1;63;63;24.43;37.00
04.10.2022 17:30;1;81;81;25.64;40.00
04.10.2022 18:00;1;88;88;23.51;35.00
04.10.2022 18:30;1;43;43;25.40;44.00
04.10.2022 19:00;1;56;56;25.20;44.00
04.10.2022 19:30;1;43;43;26.30;43.00
04.10.2022 20:00;1;38;38;24.74;37.00
04.10.2022 20:30;1;30;30;22.60;36.00
04.10.2022 21:00;1;15;15;21.40;27.00
04.10.2022 21:30;1;14;14;21.36;34.00
04.10.2022 22:00;1;16;16;22.38;40.00
04.10.2022 22:30;1;6;6;23.67;32.00
04.10.2022 23:00;1;7;7;22.86;29.00
04.10.2022 23:30;1;4;4;23.00;28.00
05.10.2022 00:00;1;3;3;19.33;21.00
05.10.2022 00:30;1;4;4;19.50;22.00
05.10.2022 01:00;1;1;1;18.00;18.00
05.10.2022 01:30;1;1;1;28.00;28.00
05.10.2022 02:00;1;1;1;39.00;39.00
05.10.2022 02:30;1;2;2;28.50;32.00
05.10.2022 03:00;1;2;2;20.00;21.00
05.10.2022 03:30;1;1;1;28.00;28.00
05.10.2022 04:30;1;3;3;24.00;28.00
05.10.2022 05:00;1;4;4;25.75;40.00
05.10.2022 05:30;1;19;19;21.16;27.00
05.10.2022 06:00;1;18;18;22.56;31.00
05.10.2022 06:30;1;48;48;22.98;35.00
05.10.2022 07:00;1;42;42;22.93;32.00
05.10.2022 07:30;1;65;65;21.48;38.00
05.10.2022 08:00;1;47;47;23.15;35.00
05.10.2022 08:30;1;48;48;22.60;34.00
05.10.2022 09:00;1;52;52;24.25;39.00
05.10.2022 09:30;1;49;49;21.76;31.00
05.10.2022 10:00;1;54;54;23.26;44.00
05.10.2022 10:30;1;59;59;23.88;36.00
05.10.2022 11:00;1;41;41;23.15;33.00
05.10.2022 11:30;1;47;47;24.77;52.00
05.10.2022 12:00;1;50;50;23.64;38.00
05.10.2022 12:30;1;55;55;24.29;40.00
05.10.2022 13:00;1;57;57;22.51;33.00
05.10.2022 13:30;1;61;61;23.72;34.00
05.10.2022 14:00;1;53;53;23.70;36.00
05.10.2022 14:30;1;62;62;23.21;36.00
05.10.2022 15:00;1;77;77;23.70;39.00
05.10.2022 15:30;1;58;58;24.33;36.00
05.10.2022 16:00;1;52;52;23.67;37.00
05.10.2022 16:30;1;75;75;25. Jan;46.00
05.10.2022 17:00;1;69;69;23.49;33.00
05.10.2022 17:30;1;58;58;25. Mai;43.00
05.10.2022 18:00;1;53;53;24.32;37.00
05.10.2022 18:30;1;55;55;23.29;36.00
05.10.2022 19:00;1;39;39;23.77;34.00
05.10.2022 19:30;1;46;46;25.13;39.00
05.10.2022 20:00;1;29;29;25.90;36.00
05.10.2022 20:30;1;19;19;23.42;29.00
05.10.2022 21:00;1;16;16;26.81;35.00
05.10.2022 21:30;1;25;25;26.36;39.00
05.10.2022 22:00;1;15;15;27.87;40.00
05.10.2022 22:30;1;13;13;28.54;42.00
05.10.2022 23:00;1;11;11;27.91;37.00
05.10.2022 23:30;1;8;8;29.00;41.00
06.10.2022 00:00;1;1;1;32.00;32.00
06.10.2022 00:30;1;3;3;30.67;47.00
06.10.2022 01:00;1;3;3;37.00;42.00
06.10.2022 01:30;1;1;1;18.00;18.00
06.10.2022 02:30;1;3;3;26.33;30.00
06.10.2022 03:00;1;1;1;21.00;21.00
06.10.2022 03:30;1;2;2;25.00;26.00
06.10.2022 04:00;1;1;1;24.00;24.00
06.10.2022 04:30;1;3;3;21.67;25.00
06.10.2022 05:00;1;8;8;24.38;32.00
06.10.2022 05:30;1;18;18;24. Nov;34.00
06.10.2022 06:00;1;21;21;24.33;30.00
06.10.2022 06:30;1;51;51;24.18;37.00
06.10.2022 07:00;1;60;60;22.25;34.00
06.10.2022 07:30;1;58;58;22.43;31.00
06.10.2022 08:00;1;60;60;25. Okt;45.00
06.10.2022 08:30;1;50;50;24.32;38.00
06.10.2022 09:00;1;45;45;23.53;36.00
06.10.2022 09:30;1;62;62;24.35;39.00
06.10.2022 10:00;1;51;51;24.80;36.00
06.10.2022 10:30;1;55;55;24.00;33.00
06.10.2022 11:00;1;57;57;23.33;43.00
06.10.2022 11:30;1;55;55;23. Mai;39.00
06.10.2022 12:00;1;51;51;22.86;36.00
06.10.2022 12:30;1;55;55;23.25;36.00
06.10.2022 13:00;1;54;54;24. Apr;32.00
06.10.2022 13:30;1;53;53;23.58;39.00
06.10.2022 14:00;1;60;60;24.13;43.00
06.10.2022 14:30;1;58;58;24.24;38.00
06.10.2022 15:00;1;67;67;24.99;39.00
06.10.2022 15:30;1;48;48;24.25;40.00
06.10.2022 16:00;1;56;56;24.18;35.00
06.10.2022 16:30;1;71;71;24. Jun;40.00
06.10.2022 17:00;1;65;65;24.37;37.00
06.10.2022 17:30;1;63;63;24.16;35.00
06.10.2022 18:00;1;51;51;25.61;50.00
06.10.2022 18:30;1;62;62;23.89;36.00
06.10.2022 19:00;1;40;40;25.20;36.00
06.10.2022 19:30;1;46;46;26.80;42.00
06.10.2022 20:00;1;32;32;26.44;50.00
06.10.2022 20:30;1;23;23;25.61;41.00
06.10.2022 21:00;1;25;25;28. Apr;44.00
06.10.2022 21:30;1;27;27;27.52;43.00
06.10.2022 22:00;1;30;30;26. Okt;34.00
06.10.2022 22:30;1;18;18;25. Nov;41.00
06.10.2022 23:00;1;13;13;25.62;37.00
06.10.2022 23:30;1;6;6;22.50;29.00
07.10.2022 00:00;1;5;5;26.40;41.00
07.10.2022 00:30;1;3;3;27.00;35.00
07.10.2022 01:00;1;2;2;32.00;32.00
07.10.2022 02:00;1;1;1;38.00;38.00
07.10.2022 02:30;1;3;3;36.00;41.00
07.10.2022 03:00;1;1;1;21.00;21.00
07.10.2022 03:30;1;1;1;37.00;37.00
07.10.2022 04:00;1;1;1;25.00;25.00
07.10.2022 04:30;1;4;4;26.50;31.00
07.10.2022 05:00;1;8;8;27.50;41.00
07.10.2022 05:30;1;15;15;25.93;33.00
07.10.2022 06:00;1;21;21;27.24;34.00
07.10.2022 06:30;1;42;42;25.67;39.00
07.10.2022 07:00;1;53;53;23.94;41.00
07.10.2022 07:30;1;68;68;23. Mrz;33.00
07.10.2022 08:00;1;57;57;23.88;35.00
07.10.2022 08:30;1;66;66;22.89;34.00
07.10.2022 09:00;1;48;48;24.50;36.00
07.10.2022 09:30;1;54;54;23.50;37.00
07.10.2022 10:00;1;50;50;23.74;37.00
07.10.2022 10:30;1;68;68;24. Mrz;38.00
07.10.2022 11:00;1;59;59;24.51;39.00
07.10.2022 11:30;1;60;60;23.30;37.00
07.10.2022 12:00;1;60;60;22.45;31.00
07.10.2022 12:30;1;60;60;23.58;38.00
07.10.2022 13:00;1;65;65;24. Mai;35.00
07.10.2022 13:30;1;62;62;23.47;34.00
07.10.2022 14:00;1;62;62;24.47;38.00
07.10.2022 14:30;1;70;70;24.31;38.00
07.10.2022 15:00;1;67;67;23.52;32.00
07.10.2022 15:30;1;65;65;24.32;38.00
07.10.2022 16:00;1;66;66;24.58;46.00
07.10.2022 16:30;1;68;68;24.72;35.00
07.10.2022 17:00;1;72;72;23.82;35.00
07.10.2022 17:30;1;61;61;24.28;40.00
07.10.2022 18:00;1;48;48;22.98;31.00
07.10.2022 18:30;1;66;66;24.73;43.00
07.10.2022 19:00;1;45;45;24.60;44.00
07.10.2022 19:30;1;43;43;24.98;40.00
07.10.2022 20:00;1;29;29;25.00;35.00
07.10.2022 20:30;1;21;21;24.71;45.00
07.10.2022 21:00;1;26;26;22.73;39.00
07.10.2022 21:30;1;22;22;23.32;39.00
07.10.2022 22:00;1;27;27;23.00;33.00
07.10.2022 22:30;1;10;10;22.70;34.00
07.10.2022 23:00;1;15;15;20.20;34.00
07.10.2022 23:30;1;10;10;24.00;34.00
08.10.2022 00:00;1;6;6;23.50;30.00
08.10.2022 00:30;1;10;10;24.00;39.00
08.10.2022 01:00;1;7;7;22.29;34.00
08.10.2022 01:30;1;6;6;31.17;41.00
08.10.2022 02:00;1;2;2;23.00;27.00
08.10.2022 02:30;1;3;3;20.33;24.00
08.10.2022 03:00;1;1;1;25.00;25.00
08.10.2022 03:30;1;1;1;16.00;16.00
08.10.2022 04:00;1;2;2;19.00;21.00
08.10.2022 04:30;1;5;5;22.80;31.00
08.10.2022 05:00;1;8;8;21.88;31.00
08.10.2022 05:30;1;8;8;23.00;30.00
08.10.2022 06:00;1;11;11;22.18;37.00
08.10.2022 06:30;1;19;19;23.00;31.00
08.10.2022 07:00;1;21;21;23.52;30.00
08.10.2022 07:30;1;39;39;22.54;40.00
08.10.2022 08:00;1;36;36;23.64;33.00
08.10.2022 08:30;1;29;29;23.66;37.00
08.10.2022 09:00;1;59;59;24. Mai;37.00
08.10.2022 09:30;1;53;53;23.51;36.00
08.10.2022 10:00;1;60;60;23.72;37.00
08.10.2022 10:30;1;58;58;23.28;35.00
08.10.2022 11:00;1;70;70;23.47;33.00
08.10.2022 11:30;1;70;70;23.99;42.00
08.10.2022 12:00;1;66;66;24. Mai;39.00
08.10.2022 12:30;1;59;59;25.32;39.00
08.10.2022 13:00;1;50;50;24. Jun;35.00
08.10.2022 13:30;1;57;57;25.77;35.00
08.10.2022 14:00;1;65;65;24.65;42.00
08.10.2022 14:30;1;67;67;24.55;36.00
08.10.2022 15:00;1;54;54;24.69;37.00
08.10.2022 15:30;1;62;62;24.63;41.00
08.10.2022 16:00;1;56;56;24. Nov;35.00
08.10.2022 16:30;1;50;50;24.00;37.00
08.10.2022 17:00;1;56;56;23.64;36.00
08.10.2022 17:30;1;56;56;22.88;38.00
08.10.2022 18:00;1;61;61;25.64;43.00
08.10.2022 18:30;1;57;57;24. Jul;38.00
08.10.2022 19:00;1;28;28;23.64;38.00
08.10.2022 19:30;1;39;39;25.18;37.00
08.10.2022 20:00;1;38;38;24.39;40.00
08.10.2022 20:30;1;32;32;27.25;43.00
08.10.2022 21:00;1;21;21;26.52;39.00
08.10.2022 21:30;1;24;24;26.75;41.00
08.10.2022 22:00;1;16;16;26.31;35.00
08.10.2022 22:30;1;16;16;27. Dez;36.00
08.10.2022 23:00;1;18;18;25.28;39.00
08.10.2022 23:30;1;16;16;26.88;36.00
09.10.2022 00:00;1;9;9;30.00;40.00
09.10.2022 00:30;1;8;8;25.75;37.00
09.10.2022 01:00;1;11;11;29.00;41.00
09.10.2022 01:30;1;6;6;34.67;48.00
09.10.2022 02:00;1;5;5;25.80;32.00
09.10.2022 02:30;1;2;2;33.00;36.00
09.10.2022 03:00;1;5;5;30.40;42.00
09.10.2022 03:30;1;3;3;29.67;34.00
09.10.2022 04:00;1;4;4;20.00;28.00
09.10.2022 05:00;1;4;4;27.25;35.00
09.10.2022 05:30;1;6;6;24.83;31.00
09.10.2022 06:00;1;3;3;31.33;39.00
09.10.2022 06:30;1;8;8;23.75;35.00
09.10.2022 07:00;1;7;7;25.86;40.00
09.10.2022 07:30;1;6;6;25.00;40.00
09.10.2022 08:00;1;8;8;21.75;27.00
09.10.2022 08:30;1;15;15;25.27;33.00
09.10.2022 09:00;1;20;20;26.40;33.00
09.10.2022 09:30;1;28;28;23.89;36.00
09.10.2022 10:00;1;33;33;25.58;34.00
09.10.2022 10:30;1;40;40;23.88;34.00
09.10.2022 11:00;1;31;31;23.23;34.00
09.10.2022 11:30;1;41;41;23.39;31.00
09.10.2022 12:00;1;39;39;24. Mrz;45.00
09.10.2022 12:30;1;36;36;22.83;40.00
09.10.2022 13:00;1;33;33;24. Jun;50.00
09.10.2022 13:30;1;43;43;24.88;34.00
09.10.2022 14:00;1;39;39;23.74;33.00
09.10.2022 14:30;1;27;27;23.41;37.00
09.10.2022 15:00;1;51;51;26.39;46.00
09.10.2022 15:30;1;49;49;25.33;44.00
09.10.2022 16:00;1;34;34;24.85;38.00
09.10.2022 16:30;1;48;48;25.21;38.00
09.10.2022 17:00;1;52;52;24.90;43.00
09.10.2022 17:30;1;51;51;25.90;38.00
09.10.2022 18:00;1;49;49;26.41;40.00
09.10.2022 18:30;1;43;43;26.86;38.00
09.10.2022 19:00;1;40;40;26.32;49.00
09.10.2022 19:30;1;43;43;25.16;34.00
09.10.2022 20:00;1;33;33;25.52;40.00
09.10.2022 20:30;1;23;23;25.87;33.00
09.10.2022 21:00;1;22;22;25.27;37.00
09.10.2022 21:30;1;19;19;24. Mai;33.00
09.10.2022 22:00;1;11;11;24.27;33.00
09.10.2022 22:30;1;13;13;28.54;48.00
09.10.2022 23:00;1;12;12;28.00;40.00
09.10.2022 23:30;1;8;8;29.00;37.00
10.10.2022 00:00;1;9;9;30.56;42.00
10.10.2022 00:30;1;3;3;24.33;37.00
10.10.2022 01:00;1;2;2;27.00;37.00
10.10.2022 02:00;1;1;1;24.00;24.00
10.10.2022 03:30;1;2;2;25.50;30.00
10.10.2022 04:00;1;3;3;29.00;42.00
10.10.2022 04:30;1;3;3;23.33;25.00
10.10.2022 05:00;1;13;13;28.23;54.00
10.10.2022 05:30;1;18;18;23.67;37.00
10.10.2022 06:00;1;28;28;25. Apr;31.00
10.10.2022 06:30;1;51;51;23.71;39.00
10.10.2022 07:00;1;60;60;23.27;40.00
10.10.2022 07:30;1;59;59;22. Feb;32.00
10.10.2022 08:00;1;53;53;22.74;29.00
10.10.2022 08:30;1;53;53;23.49;37.00
10.10.2022 09:00;1;45;45;23.98;33.00
10.10.2022 09:30;1;55;55;24.00;32.00
10.10.2022 10:00;1;56;56;24.46;43.00
10.10.2022 10:30;1;56;56;23.66;34.00
10.10.2022 11:00;1;60;60;22.67;36.00
10.10.2022 11:30;1;58;58;23.21;36.00
10.10.2022 12:00;1;54;54;23.30;33.00
10.10.2022 12:30;1;56;56;24.54;33.00
10.10.2022 13:00;1;57;57;24.14;34.00
10.10.2022 13:30;1;53;53;24. Nov;37.00
10.10.2022 14:00;1;46;46;23.20;33.00
10.10.2022 14:30;1;58;58;22.45;35.00
10.10.2022 15:00;1;64;64;22.36;40.00
10.10.2022 15:30;1;61;61;21.95;29.00
10.10.2022 16:00;1;54;54;22.13;36.00
10.10.2022 16:30;1;65;65;23.92;37.00
10.10.2022 17:00;1;71;71;25.37;36.00
10.10.2022 17:30;1;62;62;24.35;35.00
10.10.2022 18:00;1;55;55;24.45;45.00
10.10.2022 18:30;1;61;61;25.43;47.00
10.10.2022 19:00;1;46;46;24.57;36.00
10.10.2022 19:30;1;41;41;22.63;33.00
10.10.2022 20:00;1;24;24;22.42;35.00